IV3CGM-13 Weather Reports


time (UTC)temp
F
wind
direction
speed
knots
gust
knots
rain 1hr
in
rain 24hr
in
rain mn
in
humidity
%
barometer
mb
20260507020638 54 301 3.5 5.2 0.00 0.00 0.00 97 1010.9
20260507015510 54 318 3.5 3.5 0.00 0.00 0.00 98 1010.8
20260507014254 54 341 4.3 4.3 0.00 0.00 0.00 98 1010.9
20260507013112 55 322 3.5 4.3 0.00 0.00 0.00 97 1010.9
20260507011945 55 318 1.7 3.5 0.00 0.00 0.00 99 1010.8
20260507010817 55 306 2.6 3.5 0.00 0.00 0.00 99 1010.9
20260507005650 55 303 1.7 4.3 0.00 0.00 0.00 99 1010.9
20260507004433 55 300 1.7 2.6 0.00 0.00 0.00 99 1010.9
20260507003252 55 300 1.7 3.5 0.00 0.00 0.00 99 1010.9
20260507002125 55 318 2.6 2.6 0.00 0.00 0.00 99 1010.9
20260507000957 55 321 1.7 3.5 0.00 0.00 0.00 99 1011.0
20260506235830 55 318 1.7 3.5 0.00 0.00 0.00 99 1011.0
20260506234613 55 306 2.6 2.6 0.03 0.00 0.00 99 1011.0
20260506233433 55 306 2.6 2.6 0.03 0.00 0.00 99 1011.0
20260506232306 54 306 1.7 1.7 0.03 0.00 0.00 99 1011.1
20260506231137 54 306 1.7 2.6 0.05 0.00 0.00 99 1011.2
20260506230009 54 306 2.6 2.6 0.17 0.00 0.00 99 1011.2
20260506224753 54 306 1.7 3.5 0.39 0.00 2.27 99 1011.2
20260506223612 55 300 2.6 3.5 0.41 0.00 2.27 99 1011.2
20260506222444 55 300 2.6 2.6 0.41 0.00 2.27 99 1011.1
20260506221317 55 313 2.6 3.5 0.41 0.00 2.27 99 1011.1
20260506220149 55 313 3.5 3.5 0.28 0.00 2.15 99 1011.2
20260506214932 55 314 1.7 1.7 0.05 0.00 1.92 99 1011.1
20260506213752 55 311 1.7 4.3 0.00 0.00 1.87 98 1011.0
20260506212624 55 12 1.7 3.5 0.00 0.00 1.87 99 1011.0
20260506211457 55 264 1.7 1.7 0.00 0.00 1.87 99 1011.1
20260506210330 55 264 1.7 1.7 0.00 0.00 1.87 99 1011.1
20260506205113 55 264 1.7 2.6 0.00 0.00 1.87 99 1010.9
20260506203932 55 246 1.7 2.6 0.00 0.00 1.87 99 1011.0
20260506202804 55 96 1.7 4.3 0.00 0.00 1.87 99 1010.9
20260506201637 55 246 3.5 3.5 0.00 0.00 1.87 99 1010.8
20260506200509 55 291 2.6 3.5 0.00 0.00 1.87 99 1010.8
20260506195253 55 291 1.7 1.7 0.00 0.00 1.87 99 1010.7
20260506194112 55 291 1.7 2.6 0.00 0.00 1.87 99 1010.4
20260506192944 55 291 2.6 2.6 0.00 0.00 1.87 99 1010.3
20260506191817 55 291 1.7 1.7 0.00 0.00 1.87 99 1010.3
20260506190649 55 291 1.7 1.7 0.02 0.00 1.87 99 1010.3
20260506185433 55 290 1.7 1.7 0.02 0.00 1.87 99 1010.3
20260506184252 56 290 1.7 1.7 0.02 0.00 1.87 99 1010.2
20260506183124 56 278 1.7 2.6 0.02 0.00 1.87 99 1010.1
20260506181957 56 278 1.7 1.7 0.02 0.00 1.87 99 1010.1
20260506180829 56 278 1.7 1.7 0.00 0.00 1.86 99 1010.1
20260506175613 56 278 0.0 1.7 0.00 0.00 1.86 99 1010.1
20260506174431 56 278 1.7 1.7 0.00 0.00 1.86 99 1009.9
20260506173304 56 96 0.0 1.7 0.02 0.00 1.86 99 1009.8
20260506172137 56 96 1.7 1.7 0.02 0.00 1.86 99 1009.7
20260506171009 55 96 1.7 1.7 0.05 0.00 1.86 99 1009.6
20260506165752 56 96 2.6 2.6 0.08 0.00 1.86 99 1009.6
20260506164612 55 102 1.7 1.7 0.16 0.00 1.86 99 1009.6
20260506163444 55 102 0.0 1.7 0.27 0.00 1.86 99 1009.6
20260506162317 55 102 0.0 1.7 0.36 0.00 1.86 99 1009.4
20260506161149 55 102 0.0 3.5 0.41 0.00 1.84 99 1009.7
20260506155932 55 102 1.7 3.5 0.39 0.00 1.81 99 1009.6
20260506154752 56 24 1.7 1.7 0.33 0.00 1.75 99 1009.6
20260506153624 56 24 1.7 1.7 0.19 0.00 1.61 99 1009.6
20260506152457 56 315 0.0 1.7 0.14 0.00 1.54 99 1009.7
20260506151329 56 234 0.0 1.7 0.14 0.00 1.50 99 1009.7
20260506150113 56 234 0.0 1.7 0.13 0.00 1.43 99 1009.7
20260506144931 56 234 0.0 2.6 0.13 0.00 1.43 99 1009.8
20260506143804 56 234 1.7 4.3 0.13 0.00 1.43 99 1009.9
20260506142637 56 174 3.5 3.5 0.09 0.00 1.40 99 1010.0
20260506141509 57 90 2.6 4.3 0.09 0.00 1.37 99 1010.0
20260506140252 57 115 1.7 3.5 0.08 0.00 1.34 98 1010.2
20260506135112 57 54 0.0 2.6 0.08 0.00 1.31 98 1010.1
20260506133944 57 12 1.7 3.5 0.13 0.00 1.31 98 1010.2
20260506132817 56 303 1.7 3.5 0.17 0.00 1.31 97 1010.3
20260506131650 56 246 1.7 1.7 0.30 0.00 1.31 99 1010.5
20260506130433 56 210 1.7 3.5 0.38 0.00 1.31 99 1010.7
20260506125257 56 114 1.7 3.5 0.38 0.00 1.26 99 1010.7
20260506124112 56 318 1.7 3.5 0.38 0.00 1.23 99 1010.6
20260506122945 55 66 1.7 1.7 0.36 0.00 1.18 99 1010.5
20260506121817 55 78 0.0 1.7 0.35 0.00 1.02 99 1010.5
20260506120600 55 84 1.7 2.6 0.46 0.00 0.96 99 1010.5
20260506115419 55 72 1.7 1.7 0.50 0.00 0.90 99 1010.6
20260506114251 55 72 0.0 2.6 0.52 0.00 0.88 99 1010.6
20260506113124 55 48 1.7 4.3 0.52 0.00 0.87 99 1010.5
20260506111957 55 24 1.7 4.3 0.38 0.00 0.72 98 1010.4
20260506110740 56 270 2.6 5.2 0.22 0.00 0.55 98 1010.6
20260506105559 56 318 1.7 6.1 0.08 0.00 0.41 97 1010.7
20260506104431 57 156 5.2 6.1 0.05 0.00 0.36 99 1010.8
20260506103304 57 132 4.3 7.0 0.05 0.00 0.35 99 1010.7
20260506102136 58 132 3.5 6.1 0.06 0.00 0.35 99 1010.6
20260506101008 57 108 3.5 5.2 0.05 0.00 0.33 99 1010.8
20260506095841 57 78 4.3 6.1 0.05 0.00 0.33 99 1010.9
20260506094727 57 126 2.6 7.0 0.05 0.00 0.31 99 1011.0
20260506093546 57 126 3.5 7.8 0.03 0.00 0.30 99 1011.0
20260506092418 57 126 4.3 6.1 0.05 0.00 0.28 99 1011.1
20260506091250 57 108 1.7 5.2 0.14 0.00 0.28 99 1011.0
20260506090123 56 132 4.3 4.3 0.25 0.00 0.28 99 1010.9
20260506084906 56 90 1.7 3.5 0.27 0.00 0.27 99 1010.7
20260506083725 56 90 0.0 1.7 0.27 0.00 0.27 99 1010.8
20260506082545 56 90 0.0 6.1 0.24 0.00 0.24 99 1010.7
20260506081418 56 348 1.7 5.2 0.17 0.00 0.17 99 1010.6
20260506080258 56 342 1.7 2.6 0.05 0.00 0.05 99 1010.7
20260506072725 55 306 3.5 3.5 0.02 0.00 0.02 99 1010.8
20260506071558 55 306 0.0 0.0 0.02 0.00 0.02 99 1010.8
20260506070431 55 306 1.7 2.6 0.00 0.00 0.00 99 1010.8
20260506061737 56 138 0.0 1.7 0.00 0.00 0.00 96 1011.2
20260506060610 55 126 2.6 2.6 0.00 0.00 0.00 97 1011.0
20260506050725 55 330 1.7 6.1 0.00 0.00 0.00 93 1010.9
20260506044327 54 300 2.6 6.1 0.00 0.00 0.00 93 1010.9
20260506043158 53 310 2.6 2.6 0.00 0.00 0.00 99 1010.9
20260506042031 53 306 1.7 2.6 0.00 0.00 0.00 99 1011.2
20260506040904 53 306 2.6 2.6 0.00 0.00 0.00 99 1011.3
20260506035647 53 306 0.0 1.7 0.00 0.00 0.00 99 1011.4
20260506034506 53 306 2.6 3.5 0.00 0.00 0.00 99 1011.4
20260506033338 53 294 1.7 3.5 0.00 0.00 0.00 99 1011.5
20260506032209 53 306 3.5 4.3 0.00 0.00 0.00 99 1011.5
20260506031042 53 297 1.7 2.6 0.00 0.00 0.00 99 1011.4
20260506025826 53 297 1.7 4.3 0.00 0.00 0.00 99 1011.6
20260506024645 53 300 3.5 3.5 0.00 0.00 0.00 99 1011.7
20260506023517 52 300 0.0 4.3 0.00 0.00 0.00 99 1011.9
20260506022350 52 302 3.5 3.5 0.00 0.00 0.00 99 1011.9